Probability
0 0 0 0 0 0 0 0 0 0 0 0 0 0 0 0 0 0 0 0 3 3 16 39 52 52 55 61 58 58 52 48 45 45 48 48 42 48 42 48 39 42 45 42 35 32 23 23 23
0 0 0 3 0 0 0 0 0 0 0 0 0 0 0 0 0 3 0 0 3 3 23 26 42 45 55 58 55 55 48 45 42 42 45 48 45 45 48 39 35 42 42 39 32 32 26 29 26
0 0 0 0 0 0 0 0 0 0 0 0 0 0 0 0 3 3 0 0 3 10 26 32 39 45 52 48 45 42 48 45 42 42 42 39 42 42 42 39 32 32 39 35 26 29 26 26 19
0 0 0 0 0 0 0 0 0 0 0 0 0 0 0 0 3 3 0 0 3 13 23 29 42 42 45 45 42 42 42 39 42 42 42 39 39 39 32 35 32 32 32 26 26 23 23 26 19
0 0 0 0 0 0 0 0 0 0 0 0 0 0 0 0 3 0 0 0 3 10 23 26 29 35 42 39 32 39 42 45 42 42 42 39 35 29 32 32 29 32 32 26 23 19 23 23 23
0 0 0 0 0 0 0 0 0 0 0 0 3 0 0 3 3 0 0 3 6 13 19 19 26 29 32 32 32 35 39 42 42 35 35 35 29 29 29 26 32 32 26 26 19 16 23 23 19
0 0 0 0 0 0 0 0 0 0 0 0 3 0 0 3 3 0 3 6 10 13 19 16 19 19 23 19 26 29 39 39 39 39 29 29 32 29 29 29 26 29 23 26 19 16 19 19 13
0 0 0 0 0 0 0 0 0 0 0 0 0 3 3 6 6 3 6 10 13 13 19 19 19 19 16 16 10 16 23 29 29 29 19 13 16 23 23 16 19 19 16 16 10 16 10 6 10
0 0 0 0 0 0 0 0 0 0 0 0 0 3 6 6 3 6 6 10 10 13 19 13 13 16 16 13 6 6 10 6 3 3 0 0 10 10 6 0 6 10 10 10 6 3 3 0 3
0 0 0 0 0 0 0 0 0 0 3 0 3 3 6 6 3 3 6 6 6 6 13 13 13 10 16 10 10 13 10 6 10 10 6 6 6 3 3 0 0 0 3 3 3 3 3 0 3
0 0 0 0 0 0 0 0 0 3 6 0 3 3 10 6 6 3 6 6 6 6 10 13 10 10 13 10 16 13 10 13 6 3 3 3 6 3 6 6 0 0 0 3 3 3 3 3 3
0 0 0 0 0 0 0 0 0 3 0 3 3 3 10 10 0 3 3 6 6 6 6 3 6 6 10 10 10 13 10 6 3 3 6 10 10 10 10 6 3 6 3 3 3 3 3 3 3
0 0 0 0 0 0 0 0 3 3 0 3 3 3 6 6 0 0 0 3 3 6 3 3 10 10 10 6 6 6 10 3 3 0 0 0 3 3 3 0 3 3 0 3 3 0 0 0 0
0 0 0 0 0 0 0 0 0 0 3 3 3 6 6 6 3 0 3 0 0 3 0 3 3 3 3 3 3 3 0 0 0 0 0 0 0 3 0 0 0 0 0 0 0 0 0 0 0
0 0 0 0 0 0 0 0 0 0 3 3 3 6 6 3 3 3 0 0 0 0 0 0 0 3 3 3 3 3 0 0 0 0 0 0 0 0 0 0 0 0 0 0 0 0 0 0 0
0 0 0 0 0 0 0 0 0 0 3 3 3 0 3 3 3 3 3 3 0 0 0 0 0 3 3 0 3 3 3 3 3 0 0 0 0 0 0 0 0 0 0 0 0 0 0 3 3
0 0 0 0 0 0 0 0 0 0 0 0 0 0 3 3 3 3 3 3 3 0 0 0 0 3 0 0 3 3 3 3 3 3 0 0 0 0 0 0 0 0 0 0 0 0 0 3 3
0 0 0 0 0 0 0 0 0 0 0 0 0 0 3 3 3 3 3 3 3 3 0 0 0 0 0 3 3 3 3 3 3 3 3 0 0 0 0 0 0 3 3 3 3 3 3 3 3
0 0 0 0 0 0 0 0 0 0 0 0 0 0 0 0 3 3 3 3 3 3 3 0 0 0 0 3 3 3 0 0 3 3 3 3 0 0 0 0 3 3 3 3 3 3 3 3 3
0 0 0 0 0 0 0 0 0 0 0 0 0 0 0 0 0 0 0 3 3 3 3 3 0 0 0 0 3 3 3 0 0 0 0 0 3 3 0 3 3 3 3 3 3 3 3 3 0
0 0 0 0 0 0 0 0 0 0 0 0 0 0 0 0 0 0 0 0 0 3 3 3 3 0 0 0 0 0 0 0 0 0 0 0 0 0 0 3 3 3 3 0 0 3 3 0 0
0 0 0 0 0 0 0 0 0 0 0 0 0 0 0 0 0 0 0 0 0 0 3 3 3 0 0 0 0 0 0 0 0 0 0 0 0 0 0 0 3 3 0 0 0 0 0 3 0
0 0 0 0 0 0 0 0 0 0 0 0 0 0 0 0 0 0 0 0 0 0 0 3 3 0 0 0 0 0 0 0 0 0 0 0 0 0 0 0 0 0 0 0 0 0 0 0 0
0 0 0 0 0 0 0 0 0 0 0 0 0 0 0 0 0 0 0 0 0 0 0 0 0 0 0 0 0 0 0 0 0 0 0 0 0 0 0 0 0 0 0 0 0 0 0 0 0
0 0 0 0 0 0 0 0 0 0 0 0 0 0 0 0 0 0 0 0 0 0 0 0 0 0 0 0 0 0 0 0 0 0 0 0 0 0 0 0 0 0 0 0 0 0 0 0 0
0 0 0 0 0 0 0 0 0 0 0 0 0 0 0 0 0 0 0 0 0 0 0 0 0 0 0 0 0 0 0 0 0 0 0 0 0 0 0 0 0 0 0 0 0 0 0 0 0
0 0 0 0 0 0 0 0 0 0 0 0 0 0 0 0 0 0 0 0 0 0 0 0 0 0 0 0 0 0 0 0 0 0 0 0 0 0 0 0 0 0 0 0 0 0 0 0 0
0 0 0 0 0 0 0 0 0 0 0 0 0 0 0 0 0 0 0 0 0 0 0 0 0 0 0 0 0 0 0 0 0 0 0 0 0 0 0 0 0 0 0 0 0 0 0 0 0
0 0 0 0 0 0 0 0 0 0 0 0 0 0 0 0 0 0 0 0 0 0 0 0 0 0 0 0 0 0 0 0 0 0 0 0 0 0 0 0 0 0 0 0 0 0 0 0 0
0 0 0 0 0 0 0 0 0 0 0 0 0 0 0 0 0 0 0 0 0 0 0 0 0 0 0 0 0 0 0 0 0 0 0 0 0 0 0 0 0 0 0 0 0 0 0 0 0
Height
5830 5830 5831 5832 5832 5832 5832 5833 5833 5834 5833 5834 5834 5835 5836 5838 5839 5841 5840 5839 5840 5841 5842 5843 5844 5845 5847 5848 5849 5851 5852 5853 5855 5856 5857 5857 5858 5859 5860 5860 5861 5862 5862 5863 5864 5864 5865 5865 5866
5824 5825 5826 5826 5825 5825 5827 5827 5827 5827 5828 5828 5828 5829 5830 5831 5831 5832 5833 5834 5835 5836 5837 5838 5840 5841 5843 5844 5846 5847 5849 5850 5852 5853 5854 5855 5856 5857 5857 5858 5859 5860 5860 5861 5862 5862 5863 5863 5864
5818 5818 5819 5819 5818 5820 5821 5821 5821 5821 5821 5821 5822 5822 5823 5824 5825 5826 5827 5828 5829 5831 5832 5834 5835 5837 5839 5840 5842 5844 5845 5847 5848 5850 5851 5852 5853 5854 5855 5856 5856 5857 5858 5859 5860 5860 5861 5861 5862
5811 5811 5812 5812 5812 5814 5814 5815 5815 5814 5814 5815 5815 5816 5817 5818 5818 5819 5820 5821 5823 5825 5826 5828 5830 5832 5834 5836 5838 5840 5841 5843 5845 5846 5848 5849 5850 5851 5852 5853 5854 5855 5855 5856 5857 5858 5858 5859 5860
5803 5803 5804 5804 5805 5807 5807 5807 5808 5808 5808 5808 5809 5809 5810 5811 5811 5812 5814 5815 5817 5819 5821 5823 5825 5828 5830 5832 5834 5835 5837 5839 5841 5843 5844 5845 5846 5848 5849 5850 5851 5852 5852 5853 5854 5855 5856 5856 5857
5796 5796 5796 5797 5798 5799 5800 5800 5800 5800 5801 5801 5802 5802 5803 5804 5804 5806 5807 5809 5811 5813 5815 5818 5820 5823 5825 5827 5829 5831 5833 5835 5837 5838 5840 5841 5843 5844 5845 5846 5847 5848 5849 5850 5851 5852 5852 5853 5854
5789 5788 5788 5790 5791 5792 5793 5793 5793 5793 5793 5794 5794 5795 5796 5797 5797 5799 5800 5802 5805 5807 5809 5812 5815 5817 5820 5822 5824 5826 5828 5830 5832 5834 5836 5837 5839 5840 5841 5842 5844 5845 5846 5847 5848 5849 5849 5850 5850
5780 5781 5781 5782 5783 5784 5785 5785 5786 5786 5786 5787 5787 5788 5789 5790 5790 5791 5793 5796 5798 5801 5803 5806 5809 5811 5814 5817 5819 5821 5824 5826 5828 5830 5832 5833 5835 5836 5837 5838 5839 5841 5842 5843 5844 5845 5846 5846 5847
5773 5774 5773 5775 5776 5777 5777 5777 5778 5778 5779 5779 5780 5781 5782 5782 5783 5784 5786 5789 5792 5795 5797 5800 5803 5806 5808 5811 5814 5816 5818 5821 5823 5825 5827 5829 5830 5831 5833 5834 5835 5837 5838 5839 5840 5841 5842 5842 5843
5765 5766 5768 5768 5768 5769 5769 5770 5770 5771 5772 5773 5773 5774 5774 5775 5776 5778 5780 5782 5785 5788 5791 5794 5796 5799 5802 5805 5808 5811 5813 5816 5818 5820 5822 5824 5826 5827 5828 5829 5831 5832 5833 5834 5835 5836 5837 5838 5839
5759 5760 5761 5761 5761 5761 5761 5762 5763 5764 5765 5766 5767 5767 5768 5769 5770 5772 5773 5776 5779 5782 5785 5788 5791 5794 5796 5799 5802 5805 5808 5811 5813 5815 5817 5819 5821 5822 5824 5825 5826 5827 5828 5829 5830 5831 5833 5833 5834
5753 5754 5754 5754 5754 5755 5755 5755 5756 5757 5759 5760 5760 5760 5762 5763 5764 5766 5768 5770 5773 5776 5779 5781 5784 5787 5790 5793 5796 5800 5803 5806 5808 5810 5812 5814 5816 5818 5819 5820 5821 5822 5823 5824 5825 5826 5828 5829 5830
5747 5748 5747 5748 5748 5748 5749 5749 5750 5751 5753 5753 5753 5754 5756 5757 5759 5760 5762 5764 5767 5770 5773 5776 5779 5782 5784 5788 5792 5794 5797 5801 5803 5805 5807 5809 5811 5813 5814 5815 5816 5817 5818 5819 5820 5821 5822 5823 5824
5742 5741 5741 5741 5741 5742 5742 5743 5744 5746 5747 5747 5748 5749 5750 5752 5753 5755 5757 5760 5762 5765 5768 5770 5773 5776 5779 5783 5787 5789 5792 5795 5798 5800 5802 5804 5806 5807 5809 5810 5811 5812 5813 5814 5815 5815 5817 5818 5819
5735 5735 5735 5735 5735 5736 5737 5738 5738 5740 5741 5742 5743 5744 5745 5747 5748 5750 5753 5755 5757 5760 5762 5765 5767 5771 5774 5778 5781 5784 5787 5789 5792 5794 5796 5798 5800 5802 5803 5805 5806 5806 5807 5808 5809 5810 5811 5812 5813
5729 5729 5730 5731 5730 5731 5732 5733 5734 5734 5735 5737 5738 5739 5740 5742 5744 5746 5748 5750 5752 5755 5757 5760 5762 5765 5768 5772 5775 5778 5780 5783 5786 5788 5791 5793 5795 5796 5798 5799 5800 5801 5802 5802 5803 5804 5805 5806 5807
5724 5724 5725 5726 5725 5726 5727 5728 5729 5729 5730 5732 5733 5734 5736 5738 5739 5741 5743 5745 5746 5749 5752 5755 5757 5760 5763 5766 5769 5772 5775 5777 5780 5783 5785 5787 5789 5790 5792 5793 5794 5795 5796 5796 5797 5798 5799 5800 5801
5719 5720 5720 5721 5721 5721 5722 5723 5724 5724 5725 5727 5728 5730 5731 5733 5734 5736 5737 5739 5741 5744 5746 5749 5752 5755 5758 5761 5763 5766 5769 5771 5774 5776 5779 5781 5783 5784 5786 5787 5788 5789 5790 5791 5791 5792 5792 5793 5795
5714 5714 5714 5715 5715 5716 5717 5718 5719 5719 5721 5722 5723 5725 5727 5728 5729 5731 5733 5735 5736 5739 5741 5745 5747 5750 5752 5755 5758 5760 5762 5765 5768 5770 5772 5774 5776 5778 5779 5781 5782 5783 5784 5784 5785 5785 5786 5787 5788
5707 5708 5709 5709 5709 5710 5711 5712 5713 5714 5716 5717 5719 5720 5722 5723 5725 5726 5728 5730 5732 5734 5737 5740 5742 5744 5747 5749 5752 5755 5757 5759 5761 5763 5766 5768 5770 5771 5772 5774 5775 5776 5777 5777 5778 5778 5779 5780 5781
5700 5702 5703 5703 5704 5704 5705 5707 5708 5709 5710 5712 5714 5715 5717 5718 5720 5722 5724 5725 5727 5730 5732 5735 5737 5738 5741 5743 5746 5748 5750 5752 5754 5757 5759 5760 5762 5764 5766 5767 5768 5769 5769 5770 5771 5771 5772 5773 5773
5694 5696 5696 5696 5697 5698 5700 5700 5703 5703 5705 5707 5709 5711 5712 5714 5716 5717 5719 5721 5723 5725 5727 5729 5731 5733 5735 5737 5739 5741 5743 5745 5748 5750 5751 5753 5755 5756 5758 5759 5760 5761 5762 5762 5763 5763 5764 5764 5765
5687 5688 5689 5689 5690 5691 5692 5694 5698 5698 5700 5702 5704 5705 5707 5709 5711 5712 5714 5716 5718 5720 5722 5723 5725 5727 5729 5731 5732 5734 5736 5738 5740 5742 5744 5746 5747 5748 5750 5751 5752 5753 5754 5754 5755 5755 5756 5756 5756
5679 5680 5681 5681 5682 5684 5687 5688 5691 5693 5695 5697 5699 5700 5701 5703 5705 5707 5708 5710 5712 5714 5716 5718 5720 5721 5723 5724 5726 5727 5729 5731 5733 5734 5736 5738 5739 5740 5741 5743 5744 5744 5745 5746 5746 5747 5747 5748 5748
5670 5673 5673 5673 5673 5677 5680 5680 5685 5688 5690 5691 5693 5694 5696 5697 5699 5701 5702 5704 5706 5708 5710 5711 5713 5715 5717 5718 5719 5720 5722 5724 5725 5726 5728 5729 5730 5731 5732 5733 5734 5735 5736 5737 5737 5738 5738 5738 5739
5662 5665 5667 5667 5668 5671 5672 5673 5679 5681 5683 5684 5686 5687 5689 5690 5692 5694 5696 5698 5700 5701 5703 5704 5706 5708 5709 5711 5712 5713 5715 5716 5717 5718 5719 5720 5721 5722 5723 5723 5724 5725 5726 5727 5728 5728 5728 5728 5729
5653 5655 5659 5660 5660 5662 5664 5667 5671 5673 5676 5678 5679 5680 5682 5684 5686 5687 5689 5691 5693 5694 5696 5697 5699 5701 5702 5703 5704 5706 5707 5708 5709 5709 5710 5711 5712 5712 5713 5714 5714 5715 5716 5717 5718 5718 5718 5718 5718
5644 5647 5649 5650 5651 5653 5656 5659 5663 5666 5668 5670 5672 5673 5675 5677 5678 5680 5682 5684 5685 5687 5689 5690 5692 5693 5695 5696 5697 5698 5698 5699 5700 5700 5701 5702 5702 5703 5703 5703 5704 5705 5706 5706 5707 5707 5707 5708 5707
5635 5638 5639 5641 5643 5646 5648 5654 5656 5658 5660 5662 5664 5666 5668 5669 5671 5673 5675 5676 5678 5680 5681 5683 5684 5686 5687 5688 5688 5689 5689 5690 5690 5691 5691 5692 5692 5693 5693 5693 5694 5694 5695 5695 5696 5696 5696 5696 5696
5624 5627 5630 5633 5635 5638 5640 5647 5647 5650 5652 5654 5656 5658 5660 5661 5663 5664 5666 5668 5670 5672 5673 5675 5676 5678 5678 5679 5679 5680 5680 5680 5681 5681 5681 5681 5682 5682 5682 5682 5682 5683 5683 5683 5684 5684 5684 5683 5683
Wind_Speed
25 25 25 25 26 26 25 23 23 23 23 23 23 23 23 22 22 22 21 21 20 20 19 19 19 18 18 18 18 17 17 16 15 14 13 13 12 11 11 11 11 10 10 9 8 8 8 7 8
26 26 26 27 28 27 26 25 24 24 25 25 25 25 24 24 24 23 23 22 22 22 21 20 20 20 19 19 19 19 18 17 16 15 14 14 13 13 12 11 11 11 11 10 10 9 9 9 8
27 28 28 28 29 28 26 25 25 25 25 26 26 26 25 25 25 25 24 24 23 23 23 22 21 21 20 20 20 20 19 18 17 17 16 16 15 14 13 13 12 12 11 11 11 11 10 10 10
28 29 30 30 30 28 27 26 26 26 25 25 25 25 25 25 25 25 25 24 24 25 24 24 23 22 21 21 21 21 20 19 19 18 18 17 16 15 15 14 14 13 12 12 12 12 12 12 11
29 30 30 31 30 28 27 27 27 27 26 26 25 25 25 25 25 25 25 25 25 26 26 25 24 24 23 22 22 23 23 22 20 20 19 18 17 17 17 16 16 15 14 14 14 13 13 13 13
29 30 30 30 30 28 27 27 27 27 27 26 26 25 25 25 25 25 25 25 25 26 26 26 26 25 24 24 23 24 24 23 22 21 20 19 19 18 18 18 18 17 16 16 15 15 14 14 14
29 29 29 29 29 28 28 28 27 27 27 27 26 26 25 25 25 25 26 26 26 26 27 27 26 26 25 24 24 24 24 24 23 22 20 20 20 19 19 19 18 18 18 17 16 16 16 15 15
29 29 29 28 28 27 27 28 27 27 27 26 26 26 25 25 25 25 26 26 26 27 27 28 27 27 26 25 25 24 24 23 23 22 21 20 19 19 18 18 19 19 19 19 18 18 17 17 16
28 29 29 28 27 27 27 28 28 27 26 26 26 25 25 25 24 25 26 27 27 27 28 28 28 27 27 26 26 26 25 24 23 22 21 20 20 19 19 19 19 20 20 20 19 19 19 19 18
27 28 27 26 26 26 26 28 27 26 26 25 26 25 25 25 24 25 25 26 27 28 29 29 29 28 28 27 28 27 26 25 24 24 23 22 21 20 20 20 20 20 21 21 21 21 21 20 20
25 26 26 26 25 25 25 26 27 26 25 25 25 25 25 24 24 23 25 26 27 27 29 29 29 29 28 28 29 29 27 25 25 24 24 23 22 21 21 21 20 21 21 21 22 22 22 21 21
24 23 24 25 24 24 24 25 26 26 24 24 24 25 24 24 23 23 24 25 26 27 28 28 29 29 29 29 29 30 29 26 24 23 23 24 23 22 22 22 21 21 21 22 22 23 23 23 23
23 22 23 24 24 24 24 24 25 25 24 23 23 23 23 23 23 23 23 23 25 27 27 28 29 29 29 29 28 29 30 28 26 24 23 24 23 23 22 22 22 22 22 22 23 24 24 24 24
23 22 22 23 24 24 24 23 23 24 24 22 22 22 22 23 23 22 22 23 25 26 28 28 27 29 30 30 29 28 29 29 29 27 24 23 23 23 23 23 22 23 23 24 24 25 26 26 26
23 23 22 23 23 24 24 22 22 23 24 23 22 21 21 22 23 22 22 23 24 26 28 30 30 29 30 31 29 28 28 29 29 27 26 24 24 25 24 24 24 24 24 24 25 26 26 27 27
24 24 23 22 23 23 24 22 21 23 23 22 22 21 20 21 21 21 21 23 24 26 28 29 30 30 29 30 30 29 29 29 29 28 28 27 25 27 27 27 26 25 25 25 26 26 27 28 28
24 24 22 22 23 23 25 23 21 23 23 23 22 21 20 21 21 21 21 23 24 27 28 29 29 29 30 30 30 30 30 29 29 28 29 29 27 27 28 28 27 27 27 27 27 28 28 29 29
24 24 23 22 22 22 24 24 22 23 23 23 22 22 21 21 22 22 21 22 23 25 27 28 29 30 30 30 30 30 31 31 30 29 29 30 30 29 29 29 29 28 28 28 28 29 29 29 29
25 24 23 23 23 23 24 24 23 23 24 24 24 23 22 21 22 23 22 22 22 23 25 26 27 29 29 30 30 30 30 31 32 31 31 31 31 31 31 31 31 30 30 29 30 30 30 31 31
25 25 24 23 23 24 24 25 24 24 25 25 25 23 23 23 23 23 22 21 22 23 25 27 28 28 29 29 29 29 30 32 32 32 32 31 31 32 32 32 32 32 31 31 31 31 32 33 33
26 25 25 25 24 25 25 25 25 25 25 26 26 25 24 24 23 23 23 23 22 23 25 27 28 28 29 28 28 30 30 30 31 31 31 31 32 32 32 32 32 32 33 33 33 33 34 35 35
27 26 26 26 26 26 26 26 25 26 26 26 27 27 25 24 24 24 24 24 23 24 26 27 28 30 29 28 28 29 30 31 32 32 33 33 32 33 33 33 34 34 34 35 35 35 35 36 36
28 27 28 28 28 28 27 27 25 26 26 26 26 27 27 26 25 24 24 25 24 25 26 27 28 29 29 29 29 30 31 32 32 33 34 34 34 35 35 35 35 36 36 36 36 37 37 37 37
29 29 29 30 30 31 28 28 27 26 26 26 26 26 26 27 26 25 25 26 26 25 26 27 29 28 28 29 30 31 31 32 33 34 35 35 35 36 37 37 37 37 37 37 37 38 38 37 37
32 31 31 32 33 32 29 30 29 27 26 27 27 27 27 27 28 27 27 27 28 27 27 27 29 29 29 29 30 31 31 32 33 34 36 36 36 36 37 38 39 38 38 38 38 39 39 39 38
33 33 32 33 34 33 32 32 30 27 27 27 28 28 27 28 28 29 29 29 29 30 29 29 29 29 30 30 31 31 31 31 32 32 33 35 36 37 38 38 39 40 39 39 39 40 40 40 40
34 34 33 34 35 35 34 33 31 28 27 28 28 28 28 29 29 29 30 31 31 31 31 31 30 30 30 30 30 31 31 31 31 33 34 35 35 35 36 37 39 40 40 41 41 40 41 41 42
36 35 34 35 36 36 36 34 32 29 28 28 29 29 29 30 30 30 30 31 31 32 32 32 32 30 30 31 31 32 32 33 34 35 36 36 36 36 36 37 39 39 41 41 41 42 42 42 43
36 37 37 37 38 37 38 36 33 31 30 30 29 30 30 30 31 31 32 32 32 33 33 33 33 32 32 33 33 33 34 35 36 36 37 38 38 38 39 39 40 41 42 43 43 43 44 44 45
38 38 38 39 39 38 38 37 33 32 31 31 30 30 31 31 31 31 32 33 34 34 35 35 35 35 35 35 35 36 36 37 37 38 39 39 39 39 40 41 42 43 43 44 45 46 46 47 47
Wind_Direction
252 252 253 253 253 255 256 256 255 254 253 253 252 251 251 251 250 249 249 248 246 244 242 239 238 237 235 234 233 233 234 232 233 233 233 231 230 229 228 227 226 226 227 228 230 233 236 239 244
251 252 253 254 254 256 257 256 255 255 254 254 253 253 252 251 249 248 249 247 244 242 240 239 238 237 234 234 234 233 235 235 234 235 235 233 232 232 232 231 229 229 231 233 235 238 240 242 243
252 253 254 255 255 256 257 256 255 255 255 254 254 254 253 252 249 249 248 246 243 240 238 237 237 236 234 233 236 235 235 236 235 236 236 235 233 233 234 234 233 232 233 234 237 240 241 243 245
254 254 254 255 256 256 256 255 255 255 255 254 254 254 254 253 250 249 248 245 242 238 236 236 235 234 234 234 235 235 235 236 236 237 237 237 235 235 236 236 236 236 236 236 238 241 244 246 248
255 255 254 255 256 256 256 256 256 255 256 255 255 255 255 254 251 248 247 245 242 238 235 235 234 233 234 235 235 235 236 235 236 237 237 238 238 238 239 239 239 238 238 239 241 244 245 248 250
256 255 255 256 256 255 255 255 256 256 255 255 255 255 254 254 251 247 245 243 241 238 235 233 233 234 234 235 235 236 236 235 235 236 237 238 239 240 240 241 239 239 240 241 242 244 245 248 251
257 256 257 257 256 254 255 256 256 256 255 255 256 254 253 252 250 246 244 242 240 237 234 233 232 232 233 234 234 235 234 233 233 235 236 237 239 239 240 240 239 240 241 242 242 244 246 249 251
258 256 256 257 256 255 256 256 256 256 254 253 254 252 250 249 247 245 242 240 239 236 234 234 231 231 232 233 233 233 232 232 231 233 234 235 237 237 238 239 239 241 242 243 243 245 247 250 252
259 257 256 255 256 255 256 255 253 252 252 252 251 251 249 248 245 242 241 239 238 236 235 233 231 231 233 232 231 231 232 230 230 233 234 235 237 239 239 241 242 242 244 244 244 246 247 250 252
260 259 257 256 255 255 255 252 250 249 251 250 250 249 249 250 247 243 240 238 237 236 235 233 231 231 232 231 229 230 230 229 230 232 234 235 238 241 243 244 244 244 245 246 246 246 247 249 251
261 262 259 256 255 254 255 251 248 248 250 250 250 248 249 248 246 244 240 237 236 235 233 232 230 229 229 230 228 228 229 230 229 232 235 237 240 242 244 245 247 247 247 248 247 247 246 248 251
262 263 259 256 255 253 254 250 247 247 248 249 250 246 246 246 243 241 239 237 234 232 231 231 230 229 228 227 227 229 230 231 231 234 237 237 241 243 245 245 246 248 250 251 249 248 246 248 251
262 263 258 255 254 251 252 251 247 246 246 249 248 243 245 245 242 239 237 237 233 230 229 230 230 230 229 228 228 230 230 232 235 238 240 241 242 243 245 247 247 249 251 252 252 249 247 248 250
262 262 258 255 253 250 251 252 248 244 244 246 245 241 241 241 239 236 234 235 234 230 228 228 229 229 229 228 230 231 231 234 236 239 240 241 241 244 246 247 247 250 251 253 252 250 251 250 250
260 260 257 254 251 249 249 249 249 242 242 243 242 239 239 238 236 235 235 236 233 231 230 230 229 228 229 228 230 233 234 237 239 239 240 243 244 243 245 247 249 251 252 254 253 252 252 252 251
258 258 257 254 251 249 247 249 250 242 239 239 238 237 236 235 234 234 235 236 234 232 232 233 232 231 230 230 231 235 238 238 240 241 242 243 245 245 246 248 251 253 254 255 255 255 254 253 252
257 257 257 255 251 249 247 246 247 241 238 237 236 235 234 234 236 237 237 236 233 230 231 233 233 233 232 232 232 236 238 238 240 242 243 244 246 249 250 251 254 255 255 256 257 257 256 254 253
258 258 256 254 252 249 246 245 245 241 237 236 235 235 235 236 237 237 237 236 233 231 232 233 234 234 233 234 235 237 238 237 239 242 244 245 247 250 252 252 254 255 256 257 258 258 256 255 254
258 258 256 254 252 249 246 245 244 243 239 236 237 238 238 238 238 237 238 237 237 237 235 235 236 236 235 238 237 237 238 239 240 244 246 246 248 250 252 253 255 256 257 257 258 258 257 256 255
257 258 256 253 251 250 246 245 245 244 241 240 240 240 239 241 239 237 238 237 240 238 236 238 236 239 237 238 237 238 241 241 242 244 246 247 249 252 253 255 256 256 257 258 259 259 258 257 257
255 256 256 254 251 250 249 246 245 245 242 240 240 240 241 240 239 239 240 241 242 242 241 241 242 243 240 240 241 240 241 241 241 244 248 250 251 253 254 255 257 257 258 259 260 260 260 259 260
253 253 254 254 252 250 249 249 245 244 244 241 241 240 239 240 240 241 241 242 241 242 244 246 247 245 243 243 243 241 241 242 243 246 249 250 252 253 253 255 257 258 260 261 261 262 262 262 262
250 251 252 252 251 249 248 250 246 245 244 243 242 241 240 240 240 241 241 242 241 243 245 247 248 247 248 248 247 245 245 245 245 247 249 251 252 253 254 256 258 259 261 262 263 263 263 264 264
248 249 251 251 251 249 247 250 248 246 247 246 245 244 243 242 240 242 244 244 244 244 246 247 246 247 249 250 250 248 248 248 248 249 251 252 255 256 257 257 259 260 262 263 264 265 264 264 266
245 247 249 250 250 249 248 250 249 247 248 248 247 246 245 243 242 242 244 245 245 246 249 248 248 249 250 250 249 248 249 251 252 253 254 254 256 257 258 258 258 260 262 263 264 265 264 265 266
245 246 247 250 251 251 250 250 249 248 248 248 247 246 245 244 243 243 244 245 247 249 251 249 250 252 253 253 253 252 252 254 254 255 257 257 258 259 259 260 260 260 262 263 264 264 265 266 267
245 245 246 249 251 253 251 250 251 250 248 248 247 245 245 244 244 245 245 246 248 249 252 251 251 253 255 256 255 254 254 255 256 257 259 260 261 260 261 261 262 261 261 262 263 264 265 267 267
244 244 245 246 249 251 252 251 252 250 249 249 248 247 246 245 244 244 246 248 249 249 251 251 251 252 254 255 256 257 257 257 259 261 262 262 263 262 262 263 262 262 262 262 263 265 266 269 269
243 243 244 247 248 250 253 253 253 253 252 253 251 248 246 245 244 245 246 248 249 248 250 251 251 253 255 257 258 259 259 259 260 260 262 262 262 262 262 262 262 264 265 265 265 266 267 270 270
245 245 245 246 248 249 253 254 254 255 254 254 252 249 247 246 246 246 247 248 249 249 250 251 252 254 255 257 258 259 259 260 261 262 263 264 263 263 263 263 264 264 265 265 266 267 268 270 271